Location: Possagno
(45.8500°N, 11.8667°E)
Time: 20:55:07
(UTC+00:00)

Cosmos 2322 - Pass Details

Date: 07 June 2020
Orbit: 840 x 855 km, 71.0° (Epoch: 11 July)

Event Time Altitude Azimuth Distance (km) Brightness Sun altitude
Exits shadow 02:43:43 - 209° (SSW) 2,853 5.8 -6.2°
Reaches altitude 10° 02:44:43 10° 210° (SSW) 2,474 5.5 -6.1°
Maximum altitude 02:50:24 79° 297° (WNW) 875 3.8 -5.3°
Drops below altitude 10° 02:56:10 10° 24° (NNE) 2,496 7.4 -4.6°
Sets 02:58:38 0° 26° (NNE) 3,436 8.3 -4.2°
